User: anonymous   Login
Location: *
(46.1200°N, 11.2700°E)
Time: 04:05:24
(UTC+00:00)
Language:

Ariane Rocket - Orbit

View from above orbital plane
View from above orbital plane
View from above satellite
View from above satellite

Ground track
Ground track

The orbit data is extracted from the following two-line orbital elements,

1 23561U 95021B   21125.39558881  .00000031  00000-0  25320-4 0  9992
2 23561  98.6786 174.7721 0007340  28.8197 341.7667 14.38023381364843
Epoch (UTC): 05 May 2021 09:29:38
Eccentricity: 0.0007340
inclination: 98.6786°
perigee height: 760 km
apogee height: 770 km
right ascension of ascending node: 174.7721°
argument of perigee: 28.8197°
revolutions per day: 14.38023381
mean anomaly at epoch: 341.7667°
orbit number at epoch: 36484

The dashed part of the orbit path shows where the satellite is in the earth's shadow,  

DLR